�������l�o���
Date,Time,MP-1(��Sv/h),MP-2(��Sv/h),MP-3(��Sv/h),MP-4(��Sv/h),MP-5(��Sv/h),MP-6(��Sv/h),MP-7(��Sv/h),MP-8(��Sv/h),����,����(m/s),���J
2024/04/09,00:00,0.491,0.747,0.477,0.924,0.663,0.311,0.541,0.507,-,CALM,�L
2024/04/09,00:10,0.492,0.746,0.475,0.923,0.662,0.308,0.541,0.506,��,0.6,�L
2024/04/09,00:20,0.490,0.746,0.475,0.923,0.662,0.309,0.541,0.508,-,CALM,�L
2024/04/09,00:30,0.490,0.743,0.476,0.921,0.660,0.309,0.539,0.508,��,0.6,�L
2024/04/09,00:40,0.488,0.744,0.473,0.919,0.660,0.310,0.539,0.508,��,0.9,�L
2024/04/09,00:50,0.487,0.741,0.474,0.918,0.662,0.310,0.541,0.507,���k��,0.9,�L
2024/04/09,01:00,0.489,0.742,0.474,0.916,0.657,0.310,0.540,0.508,�k��,1.2,�L
2024/04/09,01:10,0.487,0.737,0.472,0.915,0.656,0.310,0.540,0.506,�k��,0.6,�L
2024/04/09,01:20,0.486,0.740,0.474,0.916,0.657,0.310,0.539,0.507,��,0.9,�L
2024/04/09,01:30,0.485,0.739,0.470,0.916,0.655,0.310,0.539,0.508,�k��,0.6,�L
2024/04/09,01:40,0.487,0.737,0.472,0.913,0.656,0.309,0.540,0.507,��,0.6,�L
2024/04/09,01:50,0.485,0.736,0.471,0.913,0.655,0.309,0.539,0.507,�쓌,1.4,�L
2024/04/09,02:00,0.484,0.736,0.471,0.912,0.654,0.310,0.538,0.507,��,0.9,�L
2024/04/09,02:10,0.486,0.736,0.472,0.912,0.654,0.309,0.539,0.506,-,CALM,��
2024/04/09,02:20,0.486,0.736,0.471,0.910,0.654,0.308,0.538,0.506,��쐼,0.6,�L
2024/04/09,02:30,0.487,0.736,0.471,0.911,0.654,0.309,0.537,0.507,-,CALM,�L
2024/04/09,02:40,0.486,0.735,0.472,0.911,0.654,0.309,0.538,0.507,-,CALM,�L
2024/04/09,02:50,0.485,0.734,0.472,0.912,0.655,0.308,0.537,0.507,-,CALM,�L
2024/04/09,03:00,0.485,0.736,0.470,0.912,0.656,0.309,0.536,0.507,��,0.8,�L
2024/04/09,03:10,0.486,0.735,0.471,0.912,0.653,0.309,0.536,0.507,-,CALM,�L
2024/04/09,03:20,0.484,0.735,0.472,0.909,0.653,0.309,0.538,0.507,-,CALM,�L
2024/04/09,03:30,0.486,0.736,0.471,0.911,0.654,0.309,0.538,0.507,�k��,0.9,�L
2024/04/09,03:40,0.487,0.733,0.470,0.911,0.654,0.309,0.538,0.506,�k�k��,0.6,�L
2024/04/09,03:50,0.486,0.736,0.468,0.911,0.655,0.309,0.538,0.510,-,CALM,�L
2024/04/09,04:00,0.485,0.736,0.470,0.910,0.654,0.308,0.537,0.507,�k�k��,0.6,�L
2024/04/09,04:10,0.483,0.735,0.470,0.911,0.652,0.309,0.537,0.508,�k�k��,0.6,�L
2024/04/09,04:20,0.485,0.732,0.472,0.908,0.655,0.309,0.538,0.508,�k,0.6,�L
2024/04/09,04:30,0.486,0.735,0.470,0.909,0.655,0.310,0.537,0.509,��,0.8,�L
2024/04/09,04:40,0.486,0.736,0.471,0.908,0.655,0.308,0.539,0.507,���k��,0.6,�L
2024/04/09,04:50,0.485,0.733,0.471,0.908,0.657,0.309,0.538,0.508,���k��,0.8,�L
2024/04/09,05:00,0.485,0.734,0.471,0.907,0.656,0.310,0.538,0.508,���k��,1.2,�L
2024/04/09,05:10,0.485,0.734,0.471,0.909,0.654,0.310,0.537,0.506,���k��,0.9,�L
2024/04/09,05:20,0.484,0.732,0.470,0.906,0.653,0.309,0.536,0.506,���k��,2.3,�L
2024/04/09,05:30,0.481,0.725,0.468,0.900,0.647,0.307,0.535,0.504,���쓌,2.3,�L
2024/04/09,05:40,0.480,0.724,0.470,0.898,0.648,0.306,0.533,0.504,�쓌,10.5,�L
2024/04/09,05:50,0.476,0.725,0.469,0.897,0.645,0.306,0.533,0.503,�쓌,1.2,�L
2024/04/09,06:00,0.478,0.721,0.468,0.895,0.645,0.308,0.535,0.504,-,CALM,�L
2024/04/09,06:10,0.478,0.721,0.468,0.895,0.642,0.307,0.532,0.504,��쓌,2.3,�L
2024/04/09,06:20,0.473,0.715,0.465,0.887,0.635,0.307,0.531,0.502,��쓌,4.5,�L
2024/04/09,06:30,0.471,0.714,0.467,0.882,0.635,0.306,0.530,0.499,��,2.3,�L
2024/04/09,06:40,0.473,0.714,0.465,0.883,0.636,0.304,0.529,0.500,��쐼,1.2,�L
2024/04/09,06:50,0.472,0.715,0.466,0.884,0.635,0.305,0.531,0.500,��,0.8,�L
2024/04/09,07:00,0.472,0.714,0.465,0.884,0.634,0.305,0.530,0.501,��쐼,1.2,�L
2024/04/09,07:10,0.472,0.712,0.463,0.884,0.634,0.305,0.529,0.501,��,1.4,�L
2024/04/09,07:20,0.471,0.710,0.464,0.881,0.631,0.304,0.528,0.498,��,2.3,�L
2024/04/09,07:30,0.470,0.711,0.465,0.881,0.630,0.304,0.529,0.500,��쓌,1.9,�L
2024/04/09,07:40,0.473,0.711,0.464,0.884,0.628,0.303,0.529,0.500,��쓌,1.2,�L
2024/04/09,07:50,0.471,0.709,0.465,0.879,0.629,0.303,0.528,0.498,-,CALM,�L
2024/04/09,08:00,0.469,0.709,0.463,0.879,0.629,0.302,0.530,0.499,��쓌,1.5,�L
2024/04/09,08:10,0.470,0.710,0.463,0.880,0.626,0.303,0.528,0.500,��,1.1,�L
2024/04/09,08:20,0.471,0.711,0.463,0.880,0.629,0.301,0.528,0.501,�쓌,2.8,�L
2024/04/09,08:30,0.468,0.705,0.460,0.876,0.622,0.300,0.528,0.500,���쓌,16.1,�L
2024/04/09,08:40,0.466,0.701,0.459,0.871,0.618,0.298,0.526,0.497,�k��,1.1,�L
2024/04/09,08:50,0.466,0.704,0.458,0.873,0.620,0.300,0.525,0.496,�k,0.8,�L
2024/04/09,09:00,0.467,0.701,0.459,0.870,0.620,0.301,0.526,0.498,-,CALM,�L
2024/04/09,09:10,0.468,0.704,0.460,0.872,0.620,0.300,0.526,0.499,-,CALM,�L
2024/04/09,09:20,0.468,0.707,0.460,0.875,0.623,0.301,0.529,0.500,��쓌,0.6,�L
2024/04/09,09:30,0.469,0.708,0.460,0.876,0.622,0.300,0.528,0.500,��쓌,1.1,�L
2024/04/09,09:40,0.472,0.709,0.463,0.882,0.623,0.301,0.528,0.500,�쓌,1.7,�L
2024/04/09,09:50,0.473,0.711,0.462,0.880,0.625,0.302,0.529,0.501,��,2.9,�L
2024/04/09,10:00,0.472,0.712,0.460,0.882,0.626,0.303,0.531,0.502,��,4.2,�L
2024/04/09,10:10,0.474,0.712,0.460,0.882,0.625,0.302,0.531,0.502,��,4.9,�L
2024/04/09,10:20,0.474,0.709,0.461,0.881,0.625,0.303,0.531,0.500,��,9.2,�L
2024/04/09,10:30,0.468,0.702,0.460,0.876,0.617,0.301,0.527,0.501,�쐼,4.4,�L
2024/04/09,10:40,0.460,0.697,0.455,0.864,0.606,0.295,0.523,0.495,-,CALM,�L
2024/04/09,10:50,0.462,0.699,0.455,0.865,0.606,0.298,0.522,0.495,��,5.5,�L
2024/04/09,11:00,0.464,0.702,0.457,0.867,0.604,0.299,0.524,0.495,���k��,5.1,�L
2024/04/09,11:10,0.464,0.699,0.456,0.865,0.606,0.299,0.525,0.496,���k��,8.3,�L
2024/04/09,11:20,0.465,0.699,0.455,0.863,0.606,0.300,0.526,0.497,���k��,7.8,�L
2024/04/09,11:30,0.463,0.696,0.455,0.862,0.603,0.300,0.522,0.495,���k��,5.9,�L
2024/04/09,11:40,0.460,0.691,0.454,0.858,0.596,0.299,0.521,0.495,-,CALM,�L
2024/04/09,11:50,0.461,0.693,0.456,0.856,0.596,0.299,0.522,0.496,��,5.5,�L
2024/04/09,12:00,0.461,0.692,0.456,0.856,0.594,0.299,0.520,0.495,���쐼,0.9,�L
2024/04/09,12:10,0.461,0.689,0.455,0.855,0.590,0.299,0.521,0.493,-,CALM,�L
2024/04/09,12:20,0.462,0.689,0.453,0.854,0.589,0.299,0.522,0.490,-,CALM,�L
2024/04/09,12:30,0.464,0.689,0.455,0.858,0.589,0.300,0.521,0.491,���k��,6.1,�L
2024/04/09,12:40,0.467,0.693,0.457,0.861,0.593,0.303,0.524,0.496,�k��,7.6,�L
2024/04/09,12:50,0.470,0.695,0.461,0.864,0.594,0.304,0.524,0.499,�k�k��,9.5,�L
2024/04/09,13:00,0.470,0.694,0.462,0.864,0.591,0.306,0.526,0.501,�k�k��,10.5,�L
2024/04/09,13:10,0.474,0.697,0.462,0.869,0.593,0.307,0.525,0.502,�k�k��,8.6,�L
2024/04/09,13:20,0.474,0.700,0.464,0.872,0.593,0.307,0.525,0.503,�k�k��,7.3,�L
2024/04/09,13:30,0.475,0.699,0.463,0.871,0.592,0.309,0.529,0.503,�k��,7.6,�L
2024/04/09,13:40,0.473,0.698,0.464,0.869,0.592,0.309,0.527,0.502,�k�k��,6.9,�L
2024/04/09,13:50,0.473,0.698,0.465,0.873,0.591,0.310,0.527,0.504,�k��,8.8,�L
2024/04/09,14:00,0.473,0.701,0.464,0.872,0.592,0.310,0.530,0.504,�k��,7.9,�L
2024/04/09,14:10,0.478,0.701,0.466,0.874,0.595,0.312,0.529,0.505,�k��,7.6,�L
2024/04/09,14:20,0.478,0.704,0.466,0.878,0.595,0.315,0.529,0.505,�k��,8.0,�L
2024/04/09,14:30,0.478,0.705,0.467,0.879,0.599,0.316,0.530,0.506,�k��,7.5,�L
2024/04/09,14:40,0.479,0.706,0.469,0.881,0.601,0.317,0.532,0.508,�k��,8.8,�L
2024/04/09,14:50,0.481,0.707,0.469,0.883,0.602,0.317,0.533,0.508,�k��,9.9,�L
2024/04/09,15:00,0.483,0.710,0.470,0.887,0.604,0.317,0.532,0.507,�k��,10.5,�L
2024/04/09,15:10,0.482,0.711,0.471,0.888,0.605,0.316,0.533,0.508,�k�k��,9.4,�L
2024/04/09,15:20,0.483,0.709,0.471,0.885,0.604,0.315,0.531,0.507,�k�k��,10.2,�L
2024/04/09,15:30,0.481,0.708,0.470,0.887,0.604,0.316,0.531,0.507,�k�k��,10.3,�L
2024/04/09,15:40,0.481,0.708,0.470,0.884,0.603,0.314,0.534,0.507,�k��,10.9,�L
2024/04/09,15:50,0.480,0.706,0.469,0.884,0.602,0.314,0.529,0.504,�k��,9.9,�L
2024/04/09,16:00,0.479,0.705,0.470,0.884,0.602,0.314,0.532,0.505,�k��,10.0,�L
2024/04/09,16:10,0.478,0.705,0.467,0.883,0.601,0.312,0.531,0.506,�k��,7.6,�L
2024/04/09,16:20,0.478,0.702,0.465,0.884,0.601,0.311,0.530,0.506,�k��,8.5,�L
2024/04/09,16:30,0.478,0.705,0.465,0.883,0.603,0.312,0.528,0.505,�k��,9.9,�L
2024/04/09,16:40,0.478,0.704,0.466,0.885,0.602,0.312,0.530,0.505,�k��,9.3,�L
2024/04/09,16:50,0.477,0.704,0.467,0.884,0.602,0.311,0.529,0.505,�k��,9.4,�L
2024/04/09,17:00,0.480,0.705,0.466,0.884,0.603,0.310,0.530,0.506,�k��,10.5,�L
2024/04/09,17:10,0.477,0.705,0.466,0.886,0.602,0.308,0.530,0.504,�k��,11.7,�L
2024/04/09,17:20,0.478,0.704,0.464,0.887,0.602,0.308,0.529,0.505,�k��,12.0,�L
2024/04/09,17:30,0.477,0.705,0.463,0.888,0.604,0.310,0.531,0.504,�k��,9.7,�L
2024/04/09,17:40,0.477,0.706,0.463,0.887,0.606,0.306,0.529,0.505,�k��,11.6,�L
2024/04/09,17:50,0.476,0.707,0.465,0.887,0.604,0.307,0.529,0.503,�k��,15.3,�L
2024/04/09,18:00,0.477,0.705,0.464,0.886,0.604,0.308,0.530,0.505,�k��,10.6,�L
2024/04/09,18:10,0.478,0.706,0.462,0.888,0.605,0.305,0.531,0.504,�k��,10.8,�L
2024/04/09,18:20,0.477,0.704,0.462,0.886,0.606,0.305,0.530,0.506,�k��,11.1,�L
2024/04/09,18:30,0.475,0.706,0.461,0.888,0.606,0.305,0.530,0.504,�k�k��,9.6,��
2024/04/09,18:40,0.476,0.707,0.461,0.888,0.605,0.305,0.529,0.504,�k�k��,10.2,��
2024/04/09,18:50,0.474,0.707,0.460,0.887,0.607,0.304,0.531,0.505,�k�k��,13.1,��
2024/04/09,19:00,0.474,0.707,0.460,0.888,0.606,0.304,0.530,0.505,�k�k��,10.7,��
2024/04/09,19:10,0.475,0.708,0.460,0.888,0.608,0.304,0.530,0.505,�k�k��,9.8,�L
2024/04/09,19:20,0.474,0.707,0.460,0.889,0.607,0.303,0.530,0.503,�k�k��,8.7,��
2024/04/09,19:30,0.474,0.706,0.459,0.890,0.608,0.303,0.530,0.504,�k�k��,8.4,��
2024/04/09,19:40,0.476,0.707,0.461,0.888,0.607,0.304,0.528,0.506,�k�k��,7.6,��
2024/04/09,19:50,0.474,0.705,0.459,0.889,0.608,0.303,0.529,0.503,�k�k��,5.5,��
2024/04/09,20:00,0.474,0.709,0.459,0.889,0.608,0.304,0.529,0.504,�k�k��,6.2,��
2024/04/09,20:10,0.474,0.707,0.460,0.887,0.609,0.304,0.530,0.505,�k��,6.5,��
2024/04/09,20:20,0.476,0.709,0.461,0.890,0.609,0.302,0.529,0.504,�k�k��,6.2,��
2024/04/09,20:30,0.476,0.709,0.459,0.891,0.611,0.303,0.529,0.503,�k��,4.6,��
2024/04/09,20:40,0.475,0.708,0.459,0.890,0.611,0.304,0.530,0.503,�k�k��,6.2,��
2024/04/09,20:50,0.477,0.712,0.459,0.889,0.611,0.303,0.530,0.503,�k��,4.5,��
2024/04/09,21:00,0.474,0.708,0.459,0.891,0.612,0.303,0.530,0.504,�k��,6.2,��
2024/04/09,21:10,0.476,0.711,0.460,0.889,0.614,0.303,0.531,0.505,�k��,7.1,��
2024/04/09,21:20,0.475,0.710,0.459,0.890,0.613,0.304,0.531,0.503,�k��,6.6,��
2024/04/09,21:30,0.476,0.710,0.459,0.891,0.614,0.302,0.530,0.505,�k�k��,6.6,��
2024/04/09,21:40,0.476,0.712,0.457,0.890,0.612,0.302,0.530,0.504,�k�k��,4.7,��
2024/04/09,21:50,0.474,0.711,0.460,0.890,0.613,0.303,0.532,0.503,�k�k��,3.6,��
2024/04/09,22:00,0.475,0.713,0.458,0.891,0.615,0.302,0.531,0.502,�k�k��,6.0,��
2024/04/09,22:10,0.475,0.710,0.460,0.890,0.614,0.302,0.532,0.503,�k��,5.7,��
2024/04/09,22:20,0.477,0.711,0.460,0.889,0.615,0.303,0.531,0.503,�k�k��,5.5,��
2024/04/09,22:30,0.475,0.713,0.458,0.890,0.615,0.303,0.533,0.502,�k�k��,8.8,��
2024/04/09,22:40,0.477,0.713,0.460,0.892,0.615,0.302,0.531,0.503,�k�k��,6.3,��
2024/04/09,22:50,0.477,0.712,0.460,0.889,0.617,0.303,0.532,0.502,�k�k��,6.8,��
2024/04/09,23:00,0.477,0.712,0.459,0.891,0.616,0.304,0.531,0.502,�k,6.5,��
2024/04/09,23:10,0.476,0.713,0.459,0.891,0.616,0.303,0.531,0.502,�k�k��,7.0,��
2024/04/09,23:20,0.476,0.712,0.458,0.893,0.617,0.303,0.532,0.504,�k�k��,9.5,��
2024/04/09,23:30,0.476,0.714,0.460,0.894,0.618,0.304,0.532,0.504,�k�k��,8.9,��
2024/04/09,23:40,0.476,0.714,0.459,0.892,0.618,0.303,0.531,0.502,�k�k��,9.5,��
2024/04/09,23:50,0.477,0.715,0.460,0.894,0.619,0.304,0.533,0.504,�k�k��,9.6,��
